カタログに戻る

CZ-6A DEB

運用中PO
NORAD 61340·DEBRIS·🇨🇳 China

打ち上げ Aug 6, 2024 から Taiyuan Satellite Launch Center

Loading…

次のパス (今後24時間)

TLE

最新Source: Space-Track

元期: Sep 14, 2026, 10:31 UTC

1 61340U 24140VD  26257.43823235  .00001005  00000-0  13751-3 0  9993
2 61340  89.0151 259.5997 0165653 207.0501 152.2015 14.68548098108623

AllMySatでCZ-6A DEBをリアルタイム追跡

Download on the App Store